When you browse on this site, cookies collect data to enhance your experience and personalize the content and advertising you see.
Visit our Privacy Policy to learn more. By continuing to use the site, you agree to this use of cookies and data.
  • In United Kingdom
  • List of Countries
  • For 7 days
  • Water Temperature
  • Weather Map
  • Weather Widgets
  • user-avatar
    Login

    Hourly Weather Lowech

    Today, 29 January, Wednesday

    Time Temperature Precipitation Wind Pressure Humidity
    00:00 +7°C° 0 mm 2 mps 732 mmHg 65%
    01:00 +8°C° 0 mm 2 mps 732 mmHg 65%
    02:00 +8°C° 0 mm 2 mps 731 mmHg 65%
    03:00 +8°C° 0 mm 2 mps 730 mmHg 64%
    04:00 +8°C° 0 mm 2 mps 729 mmHg 63%
    05:00 +8°C° 0 mm 2 mps 729 mmHg 62%
    06:00 +8°C° 0 mm 2 mps 729 mmHg 62%
    07:00 +8°C° 0 mm 2 mps 729 mmHg 61%
    08:00 +8°C° 0 mm 2 mps 729 mmHg 61%
    09:00 +7°C° 0.6 mm 3 mps 729 mmHg 66%
    10:00 +6°C° 0.6 mm 4 mps 729 mmHg 71%
    11:00 +5°C° 0.6 mm 6 mps 730 mmHg 77%
    12:00 +6°C° 0.2 mm 5 mps 730 mmHg 72%
    13:00 +7°C° 0.2 mm 4 mps 731 mmHg 67%
    14:00 +8°C° 0.2 mm 4 mps 731 mmHg 62%
    15:00 +8°C° 0 mm 3 mps 731 mmHg 64%
    16:00 +8°C° 0 mm 2 mps 731 mmHg 66%
    17:00 +9°C° 0 mm 1 mps 731 mmHg 68%
    18:00 +8°C° 0 mm 1 mps 731 mmHg 69%
    19:00 +7°C° 0 mm 0 mps 732 mmHg 70%
    20:00 +6°C° 0 mm 0 mps 732 mmHg 71%
    21:00 +7°C° 0 mm 1 mps 732 mmHg 72%
    22:00 +7°C° 0 mm 1 mps 732 mmHg 73%
    23:00 +5°C° 0 mm 2 mps 733 mmHg 74%

    Tomorrow, 30 January, Thursday

    Time Temperature Precipitation Wind Pressure Humidity
    00:00 +6°C° 0 mm 2 mps 733 mmHg 72%
    01:00 +6°C° 0 mm 2 mps 733 mmHg 70%
    02:00 +5°C° 0 mm 3 mps 733 mmHg 68%
    03:00 +4°C° 0 mm 3 mps 733 mmHg 71%
    04:00 +4°C° 0 mm 3 mps 734 mmHg 73%
    05:00 +3°C° 0 mm 3 mps 734 mmHg 76%
    06:00 +3°C° 0 mm 3 mps 734 mmHg 76%
    07:00 +3°C° 0 mm 4 mps 735 mmHg 76%
    08:00 +1°C° 0 mm 4 mps 735 mmHg 77%
    09:00 +2°C° 0 mm 5 mps 736 mmHg 67%
    10:00 +3°C° 0 mm 6 mps 736 mmHg 58%
    11:00 +4°C° 0 mm 8 mps 736 mmHg 48%
    12:00 +5°C° 0.1 mm 8 mps 736 mmHg 50%
    13:00 +5°C° 0.1 mm 8 mps 736 mmHg 53%
    14:00 +5°C° 0.1 mm 8 mps 736 mmHg 55%
    15:00 +4°C° 0 mm 7 mps 736 mmHg 56%
    16:00 +4°C° 0 mm 6 mps 736 mmHg 57%
    17:00 +3°C° 0 mm 5 mps 736 mmHg 59%
    18:00 +4°C° 0 mm 4 mps 737 mmHg 62%
    19:00 +3°C° 0 mm 3 mps 737 mmHg 65%
    20:00 +2°C° 0 mm 3 mps 738 mmHg 68%
    21:00 +3°C° 0 mm 2 mps 738 mmHg 67%
    22:00 +3°C° 0 mm 2 mps 738 mmHg 67%
    23:00 +2°C° 0 mm 2 mps 737 mmHg 67%

    Day after tomorrow, 31 January, Friday

    Time Temperature Precipitation Wind Pressure Humidity
    00:00 +3°C° 0 mm 2 mps 737 mmHg 62%
    01:00 +3°C° 0 mm 2 mps 737 mmHg 58%
    02:00 +3°C° 0 mm 2 mps 737 mmHg 54%
    03:00 +3°C° 0 mm 2 mps 737 mmHg 52%
    04:00 +4°C° 0 mm 2 mps 737 mmHg 51%
    05:00 +4°C° 0 mm 2 mps 737 mmHg 49%
    06:00 +4°C° 0 mm 2 mps 736 mmHg 50%
    07:00 +4°C° 0 mm 2 mps 736 mmHg 51%
    08:00 +4°C° 0 mm 2 mps 736 mmHg 51%
    09:00 +6°C° 0 mm 2 mps 736 mmHg 48%
    10:00 +8°C° 0 mm 2 mps 736 mmHg 45%
    11:00 +10°C° 0 mm 2 mps 736 mmHg 42%
    12:00 +10°C° 0 mm 3 mps 735 mmHg 40%
    13:00 +11°C° 0 mm 3 mps 735 mmHg 38%
    14:00 +12°C° 0 mm 4 mps 734 mmHg 36%
    15:00 +11°C° 0 mm 4 mps 734 mmHg 40%
    16:00 +11°C° 0 mm 4 mps 733 mmHg 43%
    17:00 +10°C° 0 mm 4 mps 733 mmHg 47%
    18:00 +10°C° 0 mm 4 mps 733 mmHg 49%
    19:00 +10°C° 0 mm 4 mps 733 mmHg 50%
    20:00 +10°C° 0 mm 4 mps 733 mmHg 52%
    21:00 +9°C° 0 mm 5 mps 733 mmHg 56%
    22:00 +9°C° 0 mm 5 mps 733 mmHg 59%
    23:00 +9°C° 0 mm 5 mps 733 mmHg 63%

    1 February, Saturday

    Time Temperature Precipitation Wind Pressure Humidity
    00:00 +9°C° 0 mm 5 mps 734 mmHg 64%
    01:00 +9°C° 0 mm 5 mps 734 mmHg 66%
    02:00 +9°C° 0 mm 5 mps 734 mmHg 68%
    03:00 +8°C° 0 mm 5 mps 734 mmHg 69%
    04:00 +8°C° 0 mm 5 mps 734 mmHg 71%
    05:00 +8°C° 0 mm 5 mps 735 mmHg 73%
    06:00 +8°C° 0 mm 4 mps 735 mmHg 75%
    07:00 +7°C° 0 mm 4 mps 735 mmHg 76%
    08:00 +8°C° 0 mm 3 mps 736 mmHg 78%
    09:00 +8°C° 0 mm 4 mps 736 mmHg 73%
    10:00 +11°C° 0 mm 4 mps 736 mmHg 69%
    11:00 +12°C° 0 mm 5 mps 737 mmHg 64%
    12:00 +13°C° 0 mm 5 mps 736 mmHg 61%
    13:00 +13°C° 0 mm 4 mps 736 mmHg 58%
    14:00 +14°C° 0 mm 4 mps 736 mmHg 55%
    15:00 +13°C° 0 mm 3 mps 736 mmHg 58%
    16:00 +14°C° 0 mm 2 mps 736 mmHg 61%
    17:00 +13°C° 0 mm 1 mps 736 mmHg 64%
    18:00 +12°C° 0 mm 1 mps 736 mmHg 67%
    19:00 +11°C° 0 mm 1 mps 736 mmHg 69%
    20:00 +10°C° 0 mm 1 mps 736 mmHg 72%
    21:00 +10°C° 0 mm 1 mps 736 mmHg 73%
    22:00 +10°C° 0 mm 1 mps 736 mmHg 74%
    23:00 +9°C° 0 mm 1 mps 735 mmHg 75%

    2 February, Sunday

    Time Temperature Precipitation Wind Pressure Humidity
    00:00 +9°C° 0 mm 1 mps 735 mmHg 76%
    01:00 +9°C° 0 mm 1 mps 735 mmHg 76%
    02:00 +9°C° 0 mm 1 mps 735 mmHg 76%
    03:00 +8°C° 0 mm 1 mps 735 mmHg 76%
    04:00 +8°C° 0 mm 1 mps 734 mmHg 76%
    05:00 +8°C° 0 mm 1 mps 734 mmHg 76%
    06:00 +8°C° 0 mm 1 mps 734 mmHg 75%
    07:00 +8°C° 0 mm 1 mps 734 mmHg 74%
    08:00 +8°C° 0 mm 1 mps 734 mmHg 74%
    09:00 +10°C° 0 mm 1 mps 734 mmHg 67%
    10:00 +12°C° 0 mm 1 mps 735 mmHg 59%
    11:00 +14°C° 0 mm 1 mps 735 mmHg 52%
    12:00 +14°C° 0 mm 2 mps 735 mmHg 52%
    13:00 +14°C° 0 mm 3 mps 735 mmHg 52%
    14:00 +14°C° 0 mm 5 mps 735 mmHg 52%
    15:00 +13°C° 0 mm 5 mps 735 mmHg 57%
    16:00 +12°C° 0 mm 5 mps 735 mmHg 63%
    17:00 +10°C° 0 mm 5 mps 736 mmHg 68%
    18:00 +9°C° 0 mm 5 mps 736 mmHg 68%
    19:00 +8°C° 0 mm 5 mps 737 mmHg 68%
    20:00 +7°C° 0 mm 6 mps 738 mmHg 68%
    21:00 +7°C° 0 mm 6 mps 738 mmHg 67%
    22:00 +5°C° 0 mm 6 mps 739 mmHg 66%
    23:00 +4°C° 0 mm 6 mps 739 mmHg 64%

    3 February, Monday

    Time Temperature Precipitation Wind Pressure Humidity
    00:00 +5°C° 0 mm 5 mps 739 mmHg 65%
    01:00 +4°C° 0 mm 4 mps 740 mmHg 66%
    02:00 +4°C° 0 mm 4 mps 740 mmHg 66%
    03:00 +4°C° 0 mm 4 mps 740 mmHg 67%
    04:00 +4°C° 0 mm 4 mps 740 mmHg 68%
    05:00 +4°C° 0 mm 4 mps 740 mmHg 70%
    06:00 +4°C° 0 mm 4 mps 740 mmHg 68%
    07:00 +4°C° 0 mm 4 mps 740 mmHg 66%
    08:00 +4°C° 0 mm 4 mps 740 mmHg 64%
    09:00 +5°C° 0 mm 4 mps 741 mmHg 60%
    10:00 +6°C° 0 mm 5 mps 741 mmHg 56%
    11:00 +7°C° 0 mm 5 mps 741 mmHg 52%
    12:00 +8°C° 0 mm 5 mps 741 mmHg 50%
    13:00 +9°C° 0 mm 5 mps 740 mmHg 48%
    14:00 +10°C° 0 mm 5 mps 740 mmHg 46%
    15:00 +10°C° 0 mm 4 mps 740 mmHg 49%
    16:00 +10°C° 0 mm 3 mps 739 mmHg 51%
    17:00 +10°C° 0 mm 2 mps 739 mmHg 54%
    18:00 +9°C° 0 mm 2 mps 739 mmHg 56%
    19:00 +9°C° 0 mm 3 mps 739 mmHg 58%
    20:00 +8°C° 0 mm 3 mps 740 mmHg 60%
    21:00 +8°C° 0 mm 3 mps 740 mmHg 60%
    22:00 +9°C° 0 mm 3 mps 740 mmHg 61%
    23:00 +9°C° 0 mm 3 mps 740 mmHg 61%
    Show more